Location: Stonelick Lake State Park
(39.2170°N, 84.0850°W)
Time: 13:19:41
(UTC-05:00)

Daily predictions for brighter satellites

Satellite Brightness Start Highest point End
(mag) Time Altitude Azimuth Time Altitude Azimuth Time Altitude Azimuth
Meteor 1-11 Rocket 4.1 17:32:34 10° NNW 17:38:05 71° W 17:43:33 10° S
Cosmos 1812 3.9 17:40:10 10° SE 17:43:15 23° E 17:46:20 10° NE
Cosmos 1295 Rocket 4.5 17:37:10 10° N 17:43:16 64° E 17:49:16 10° SSE
Cosmos 1844 Rocket 2.7 17:41:17 10° SSW 17:46:49 69° ESE 17:52:24 10° NNE
PAYLOAD A 3.9 17:43:40 10° SSE 17:48:25 83° ENE 17:53:23 10° N
Cosmos 2341 Rocket 4.2 17:46:25 10° N 17:52:39 82° W 17:58:51 10° S
SPOT 3 Rocket 3.5 17:50:10 10° SSE 17:55:18 66° ENE 18:00:27 10° N
MSX 4.1 17:50:03 10° SE 17:55:27 44° ENE 18:00:52 10° N
SL-8 R/B 4.2 17:52:07 10° SW 17:56:42 48° SE 18:00:58 12° ENE
Cosmos 1844 3.7 17:54:49 10° S 18:00:19 66° ESE 18:05:50 10° NNE
CZ-4 R/B 1.5 17:57:11 10° SSE 18:01:23 85° WSW 18:05:34 10° NNW
SJ-12 3.9 17:58:42 10° SSE 18:02:47 82° ENE 18:06:55 10° N
CORIOLIS 4.1 17:58:41 10° SSE 18:04:02 68° ENE 18:09:25 10° N
USA 234 3.9 18:01:51 10° NE 18:08:07 51° NW 18:14:24 10° WSW
USA 32 4.0 18:04:43 10° S 18:09:56 81° E 18:15:11 10° N
ASTRO F (AKARI) 4.2 18:09:11 10° NNE 18:12:18 57° ESE 18:15:23 10° S
Meteor 1-12 Rocket 4.5 18:06:49 10° N 18:12:27 51° ENE 18:18:09 10° SSE
IDEFIX/ARIANE 42P 2.6 18:08:30 10° SSE 18:13:43 88° WSW 18:18:56 10° NNW
Cosmos 1975 3.5 18:10:44 10° NNE 18:14:28 34° ENE 18:18:08 10° SE
Cosmos 2278 Rocket 2.3 18:11:58 10° S 18:17:27 55° ESE 18:22:58 10° NNE
Cosmos 1544 Rocket 3.5 18:16:07 10° N 18:20:36 87° ENE 18:25:04 10° S
COSMO-SKYMED 1 2.9 18:16:34 10° NNE 18:20:43 43° E 18:24:51 10° S
NOSS 3-3 (A) 4.1 18:15:17 10° SSW 18:21:17 59° ESE 18:26:54 14° NE
NOSS 3-3 (C) 4.1 18:15:23 10° SSW 18:21:23 58° ESE 18:26:58 14° NE
Nadezhda 3 Rocket 4.5 18:16:11 10° SSE 18:21:44 37° E 18:27:23 10° NNE
COSMOS 2406 4.1 18:17:48 10° NNW 18:23:21 53° WSW 18:28:54 10° S
Cosmos 864 Rocket 4.4 18:18:40 10° N 18:24:58 75° E 18:31:16 10° SSE
Cosmos 494 Rocket 3.9 18:22:17 10° NNW 18:27:32 68° ENE 18:32:45 10° SSE
Tiangong 1 2.5 18:26:41 10° SSW 18:29:08 22° SSE 18:29:51 20° SE
ISS -1.6 18:27:29 10° W 18:30:18 25° NNW 18:32:01 17° NNE
ATLAS 2AS CENTAUR R/B 3.0 18:23:09 10° NNW 18:31:17 82° ENE 18:38:48 10° SE
Thor Agena Rocket 4.4 18:28:58 10° N 18:33:59 51° WNW 18:39:03 10° SW
Genesis I 4.2 18:33:47 10° N 18:36:54 27° NE 18:36:54 27° NE
Cosmos 1484 Rocket 2.5 18:33:37 10° SSE 18:37:21 70° ENE 18:41:05 10° N
Cosmos 1536 Rocket 3.6 18:34:51 10° S 18:39:19 85° W 18:43:48 10° N
Cosmos 2082 Rocket 2.9 18:38:44 10° N 18:43:45 31° ENE 18:45:10 28° E
YAOGAN 1 4.2 18:42:31 10° SSW 18:46:32 37° W 18:50:34 10° NNW
Cosmos 1833 Rocket 3.5 18:42:41 10° N 18:47:33 29° ENE 18:47:38 29° ENE
Cosmos 2251 Rocket 3.9 18:42:19 10° NNW 18:47:39 68° WSW 18:52:54 10° S
NOAA 12 4.2 18:45:19 10° SE 18:50:22 48° ENE 18:55:25 10° N
METEOR-M 4.3 18:49:48 10° SE 18:54:50 44° ENE 18:59:53 10° N
Meteor 2-21 Rocket 4.4 18:49:14 10° N 18:55:22 61° E 19:01:26 10° SSE
Cosmos 1500 3.1 18:53:20 10° N 18:57:10 89° W 19:01:00 10° S
CZ-2C R/B 4.4 18:53:13 10° SSW 18:57:33 31° W 19:02:03 10° NNW
Meteor 2-16 Rocket 4.5 18:54:21 10° N 19:00:18 54° E 19:06:13 10° SSE
Meteor 1-28 Rocket 3.0 19:00:16 54° NE 19:01:01 74° E 19:04:48 10° S
Cosmos 921 Rocket 3.2 18:57:53 10° S 19:01:34 46° ESE 19:01:34 46° ESE
OE (NEXTSAT) 4.2 18:58:22 10° WSW 19:01:57 81° SSE 19:02:01 80° SE
BREEZE M DEB (TANK) 2.5 18:54:41 10° SW 19:03:19 90° S 19:04:05 56° NE
DMSP B5D1-3 4.5 18:59:44 11° NNE 19:04:49 87° WNW 19:09:57 10° SSW
BREEZE-M R/B 4.2 18:57:48 10° WSW 19:08:03 66° NNW 19:10:11 37° NE
Okean 1-7 Rocket 3.5 19:04:05 10° S 19:08:34 71° E 19:09:30 53° NNE
SKYMED 2 4.3 19:04:34 10° N 19:08:48 52° WNW 19:13:01 10° SSW
Meteor 2-4 Rocket 3.9 19:03:43 10° SSE 19:08:15 42° ESE 19:08:15 42° ESE
Cosmos 375 4.2 19:06:52 10° NW 19:11:13 89° ENE 19:11:36 72° SE
OTV 4 3.2 19:13:55 10° WSW 19:15:37 14° SSW 19:16:04 14° SSW
NOSS 2-1 (D) 4.3 19:14:45 10° SSW 19:17:10 35° S 19:17:10 35° S
SL-24 R/B - RUBIN 2 4.4 19:12:41 10° SSW 19:18:57 90° ESE 19:21:48 37° NNE
NOSS 2-1 (C) 4.4 19:15:27 10° SSW 19:17:48 34° S 19:17:48 34° S
Cosmos 1535 Rocket 4.4 19:13:51 10° N 19:20:09 68° E 19:26:20 10° SSE
GEOS 3 Rocket 3.7 19:16:36 14° SSE 19:21:04 74° SW 19:26:13 10° NW
Delta 2 Rocket 4.4 19:18:36 10° SW 19:21:53 36° S 19:21:53 36° S
Cosmos 1934 Rocket 4.0 19:16:56 10° N 19:23:00 56° E 19:29:09 10° SSE
Cosmos 1346 Rocket 4.1 19:21:33 10° SSW 19:25:14 38° WNW 19:26:52 26° NNW
Timation 2 Rocket 4.0 19:20:15 10° NNW 19:27:07 80° ENE 19:33:01 15° SSE
ATLAS 3B CENTAUR R/B 3.8 19:19:44 10° WSW 19:35:07 42° S 19:38:07 30° SE
Cosmos 2239 Rocket 4.4 19:31:12 10° N 19:37:27 86° W 19:43:35 10° S
CZ-3B DEB 3.7 19:35:30 10° W 19:40:12 39° NNW 19:43:53 29° NNE
Cosmos 2297 4.2 19:40:27 10° SW 19:46:00 57° WNW 19:47:18 46° NNW
Cosmos 1821 Rocket 4.0 19:40:19 10° N 19:46:25 77° W 19:52:28 10° S
Cosmos 2278 Rocket 4.3 19:57:35 10° WSW 20:01:52 22° NW 20:04:53 15° NNW
NOSS 3-4 (A) 4.4 19:59:54 10° NNW 20:04:34 43° N 20:04:34 43° N
BREEZE M DEB (TANK) 4.0 20:02:09 10° NW 20:06:13 65° N 20:06:13 65° N
NOSS 3-4 (C) 4.4 20:00:01 10° NNW 20:04:38 42° N 20:04:38 42° N
Cosmos 2082 Rocket 3.6 20:22:42 10° NW 20:27:08 34° W 20:27:08 34° W
Cosmos 1833 Rocket 4.4 20:26:20 10° NW 20:29:26 29° WNW 20:29:26 29° WNW
FALCON 9 R/B 3.9 20:41:14 10° W 20:51:03 42° WSW 20:51:03 42° WSW
